Date/Time (UTC),ProbHail,ProbWind,ProbTor,MESH,VIL Density,Flash Rate,Max Flash Density,LJA sigma-level,Max 0-2km AzShear,LLAZ 98th%,MLAZ 98th%,MUCAPE,MLCAPE,CAPE -10C to -30C,MLCIN,SRH 0-1km AGL,EBShear,MeanWind 0-1km AGL,Norm. Sat. Growth Rate,PWAT,WBZ,AvgBeamHgt,size
2019/05/20 22:54,33,34,8,0.72,1.6,1,0.05,0.0,7,5,4,5072,3856,1133,9,185,72.6,34.6,0,1.6,10.1,2.9,54
2019/05/20 22:56,41,38,9,0.86,1.6,1,0.18,0.0,7,5,6,5192,4214,1317,0,275,77.0,35.1,0,1.7,10.1,3.1,48
2019/05/20 22:58,64,52,9,0.86,1.9,5,0.34,0.0,5,5,6,5178,4192,1311,0,273,77.0,35.1,0,1.7,10.1,3.2,60
2019/05/20 23:00,64,56,8,0.86,2.0,6,0.36,0.0,5,5,5,5153,4132,1300,0,267,77.2,35.0,0,1.7,10.1,3.4,73
2019/05/20 23:03,69,71,7,0.87,2.0,17,0.36,0.0,5,5,3,5112,4048,1295,0,249,76.7,33.9,0,1.7,10.1,3.5,541
2019/05/20 23:05,72,78,7,0.87,2.3,20,0.36,0.0,5,5,4,5109,4047,1289,0,245,76.9,33.9,0,1.7,10.1,3.5,503
2019/05/20 23:08,85,78,4,1.0,2.6,24,0.36,1.3,5,3,4,5105,4040,1281,0,238,76.4,33.9,0,1.7,10.1,3.6,581
2019/05/20 23:10,85,83,7,1.07,2.6,25,0.38,0.5,6,5,6,5127,4063,1284,0,247,77.7,34.4,0,1.7,10.1,3.9,220
2019/05/20 23:12,85,83,8,1.07,2.6,25,0.38,0.0,6,5,4,5122,4058,1278,0,241,77.1,34.3,0,1.7,10.1,3.9,240
2019/05/20 23:14,87,81,8,1.07,2.4,25,0.38,0.0,6,5,4,5119,4051,1271,0,236,76.5,34.3,0,1.7,10.1,3.8,210
2019/05/20 23:16,77,78,7,0.82,2.4,25,0.38,0.4,7,4,5,5113,4051,1264,0,230,75.9,34.3,0,1.7,10.1,3.7,259
2019/05/20 23:18,61,69,6,0.74,2.4,18,0.38,0.0,6,4,6,5109,4050,1252,1,226,75.4,34.3,0,1.7,10.1,3.7,248
2019/05/20 23:20,61,72,6,0.65,2.2,24,0.38,2.1,6,4,5,5109,4047,1247,1,223,75.1,34.3,0,1.7,10.1,3.6,263
2019/05/20 23:22,61,65,7,0.64,2.2,24,0.38,0.0,7,4,4,5109,4050,1243,1,223,75.1,34.3,0,1.7,10.1,3.6,261
2019/05/20 23:24,66,69,8,0.66,2.2,24,0.38,0.1,8,4,4,5108,4047,1229,1,216,74.5,34.3,0,1.7,10.1,3.5,215
2019/05/20 23:26,70,66,8,0.72,2.3,24,0.38,1.1,5,4,4,5108,4051,1217,1,213,74.4,34.4,0,1.6,10.1,3.5,201
2019/05/20 23:28,65,58,10,0.72,2.3,19,0.38,0.0,8,6,4,5109,4047,1211,2,209,74.2,34.4,0,1.6,10.1,3.5,216
2019/05/20 23:30,72,75,48,0.81,2.3,19,0.38,0.5,14,10,4,5109,4047,1206,2,206,74.1,34.4,0,1.6,10.1,3.5,205
2019/05/20 23:32,86,88,48,1.12,2.9,19,0.38,0.0,14,10,4,5111,4041,1200,2,201,74.0,34.4,0,1.6,10.1,3.4,186
2019/05/20 23:34,94,87,48,1.61,2.9,16,0.38,0.6,14,10,4,5110,4038,1191,3,198,74.0,34.5,0,1.6,10.1,3.4,203
2019/05/20 23:36,94,87,33,1.61,2.9,16,0.38,0.0,12,9,5,5108,4032,1184,3,195,73.9,34.5,0,1.6,10.1,3.4,219
2019/05/20 23:38,93,85,35,1.61,2.9,14,0.38,0.0,12,9,5,5095,4022,1181,3,190,73.7,34.6,0,1.6,10.1,3.4,222
2019/05/20 23:40,90,91,36,1.35,3.4,14,0.38,0.2,12,9,5,5091,4021,1171,3,188,73.6,34.7,0,1.6,10.1,3.4,225
2019/05/20 23:42,92,92,36,1.35,3.4,20,0.38,2.7,12,9,5,5077,4018,1167,3,186,73.4,34.7,0,1.6,10.1,3.4,212
2019/05/20 23:44,92,85,36,1.35,3.4,20,0.38,0.0,12,9,4,5056,4017,1174,3,183,73.2,34.7,0,1.6,10.1,3.4,229
2019/05/20 23:46,89,88,26,1.21,3.1,20,0.38,0.0,12,7,4,5062,4017,1171,3,183,73.2,34.7,0,1.6,10.1,3.4,220
2019/05/20 23:48,89,91,31,1.21,3.1,20,0.38,0.9,12,8,5,5063,4017,1171,3,183,73.2,34.7,0,1.6,10.1,3.4,275
2019/05/20 23:50,89,94,48,1.09,2.8,27,0.38,2.4,14,10,6,5024,4012,1181,3,173,72.4,34.8,0,1.5,10.1,3.4,407
2019/05/20 23:52,87,85,80,1.04,2.6,27,0.36,0.0,14,10,12,5006,4006,1193,4,164,71.9,35.0,0,1.5,10.1,3.3,293
2019/05/20 23:54,91,87,80,1.16,2.8,27,0.36,0.2,14,10,12,3966,3512,1013,10,189,71.9,34.9,0,1.5,10.5,3.3,312
2019/05/20 23:56,93,95,74,1.3,3.2,33,0.36,1.4,14,8,8,3954,3505,1011,10,187,71.5,35.1,0,1.5,10.5,3.4,391
2019/05/20 23:58,94,95,64,1.3,3.2,34,0.36,0.2,13,7,6,3948,3502,1011,10,186,71.3,35.2,0,1.5,10.5,3.4,421
2019/05/21 00:00,94,95,39,1.3,3.2,34,0.36,0.0,13,7,7,3924,3491,1007,9,183,70.6,35.7,0,1.5,10.5,3.5,419
2019/05/21 00:02,91,92,39,1.13,2.4,34,0.36,0.0,13,7,8,3920,3490,1008,9,183,70.6,35.7,0,1.5,10.5,3.5,405
2019/05/21 00:04,80,88,39,0.81,2.2,34,0.36,0.0,11,7,8,3924,3490,1008,9,183,70.7,35.7,0,1.5,10.5,3.5,400
2019/05/21 00:06,78,88,49,0.81,2.2,30,0.42,0.1,14,8,8,3879,3485,974,9,184,69.2,36.4,0,1.6,10.2,3.8,353
2019/05/21 00:08,78,84,49,0.78,1.8,30,0.42,0.4,14,8,8,3864,3482,958,9,184,68.8,36.6,0,1.6,10.1,3.9,332
2019/05/21 00:10,78,84,59,0.78,1.8,31,0.42,0.4,14,8,9,3846,3474,940,8,183,68.0,36.8,0,1.6,10.1,3.9,284
2019/05/21 00:12,74,84,59,0.74,1.9,31,0.42,0.0,14,8,7,3839,3469,926,8,184,67.4,37.0,0,1.6,10.0,3.9,277
2019/05/21 00:14,74,84,59,0.74,1.9,31,0.42,0.1,14,8,7,3829,3459,915,8,184,66.9,37.1,0,1.6,10.0,3.9,253
2019/05/21 00:16,71,81,32,0.74,1.9,31,0.42,0.8,11,8,6,3817,3419,913,9,187,65.9,37.4,0,1.6,9.9,4.2,459
2019/05/21 00:18,59,72,32,0.74,1.9,20,0.42,0.0,11,8,6,3816,3417,912,10,189,65.3,37.6,0,1.6,9.9,4.2,434
2019/05/21 00:20,41,68,23,0.52,1.9,20,0.42,0.4,11,7,4,3816,3416,911,11,191,64.7,37.7,0,1.6,9.9,4.3,407
2019/05/21 00:22,45,60,16,0.57,1.4,20,0.42,0.0,10,6,4,3815,3415,909,11,193,64.0,38.0,0,1.6,9.9,4.5,301
2019/05/21 00:24,38,40,16,0.57,1.4,12,0.42,0.0,10,6,4,3812,3410,910,12,194,63.6,38.1,0,1.6,9.9,4.5,290
2019/05/21 00:26,38,40,16,0.57,1.4,12,0.42,0.0,10,6,4,3811,3406,911,12,195,63.4,38.3,0,1.6,9.9,4.6,241
2019/05/21 00:28,43,44,11,0.64,1.5,11,0.42,0.0,9,5,5,3817,3408,913,12,195,63.4,38.4,0,1.6,9.9,4.7,235
2019/05/21 00:30,42,44,12,0.64,1.5,8,0.42,0.0,8,5,6,3839,3411,917,12,195,63.3,38.6,0,1.6,9.9,4.8,237
2019/05/21 00:32,37,44,12,0.64,1.5,8,0.42,0.0,8,5,3,3860,3420,922,12,194,63.4,38.8,0,1.7,9.9,4.9,239
2019/05/21 00:34,29,42,10,0.52,1.7,4,0.42,0.0,8,5,5,3876,3430,926,12,194,63.4,39.0,0,1.7,9.9,5.0,216
2019/05/21 00:36,37,29,7,0.63,1.7,6,0.42,0.0,7,4,5,3886,3437,928,12,193,63.5,39.0,0,1.7,9.9,5.1,205
2019/05/21 00:38,38,39,7,0.63,1.7,9,0.39,0.0,7,4,5,3909,3461,934,11,191,63.6,39.2,0,1.7,9.9,5.2,204
2019/05/21 00:40,48,47,14,0.75,2.1,9,0.39,0.0,7,4,4,3945,3514,938,10,187,63.3,39.5,0,1.7,9.9,5.4,260
2019/05/21 00:42,48,47,15,0.75,2.1,12,0.34,2.3,11,5,4,3938,3499,938,10,188,63.5,39.4,0,1.7,9.9,5.4,215
2019/05/21 00:44,50,44,15,0.75,2.1,13,0.34,0.5,11,5,3,3977,3570,940,9,185,62.9,39.7,0,1.7,9.9,5.6,275
2019/05/21 00:46,36,38,15,0.59,1.8,13,0.34,0.0,11,5,5,4010,3621,943,9,186,63.4,39.9,0,1.7,9.9,5.8,202
2019/05/21 00:48,23,27,5,0.43,1.6,13,0.23,0.0,5,3,4,4032,3667,944,9,184,62.5,40.0,0,1.7,9.9,5.9,289
2019/05/21 00:50,17,36,5,0.34,1.4,13,0.23,0.0,5,4,5,4063,3711,947,9,184,62.5,40.2,0,1.7,9.9,6.0,201
2019/05/21 00:52,12,30,5,0.29,1.4,8,0.23,0.0,5,4,4,4088,3767,948,9,185,61.4,40.5,0,1.7,10.0,6.3,266
2019/05/21 00:54,12,23,5,0.26,1.3,6,0.23,0.0,5,4,3,4100,3790,949,8,186,60.6,40.6,0,1.7,10.0,6.4,325
2019/05/21 00:56,14,8,5,0.31,1.3,5,0.23,0.0,5,3,3,4108,3806,950,8,186,60.2,40.8,0,1.7,10.0,6.5,219
2019/05/21 00:58,14,4,4,0.31,1.5,5,0.23,0.0,4,3,3,4116,3825,951,8,187,59.9,40.9,0,1.7,10.0,6.6,204
2019/05/21 01:00,14,4,5,0.31,1.5,4,0.23,0.0,4,2,3,4136,3837,957,8,190,59.5,41.1,0,1.7,10.0,6.9,314
2019/05/21 01:02,12,4,5,0.28,1.5,4,0.23,0.0,3,2,3,4146,3842,959,8,191,59.3,41.2,0,1.7,10.0,7.0,272
2019/05/21 01:04,8,3,5,0.19,1.3,4,0.23,0.0,3,2,2,4184,3843,965,7,193,59.4,41.4,0,1.7,10.0,7.3,242
2019/05/21 01:06,7,3,4,0.19,1.3,4,0.23,0.0,3,2,2,4239,3837,970,7,196,59.6,41.5,0,1.7,10.0,7.4,253
2019/05/21 01:08,6,3,4,0.13,1.0,4,0.23,0.0,3,2,3,4251,3841,971,7,199,60.2,41.6,0,1.7,10.1,7.5,224
2019/05/21 01:10,7,3,4,0.07,0.8,4,0.19,0.0,3,2,2,4407,3815,989,6,206,62.2,41.8,0,1.7,10.1,7.8,234
2019/05/21 01:12,3,1,4,0.07,0.8,2,0.19,0.0,3,2,2,4482,3804,998,6,209,62.9,41.9,0,1.7,10.1,7.9,221
2019/05/21 01:14,3,1,4,0.06,0.7,2,0.19,0.0,4,2,2,4610,3773,1014,6,217,64.5,42.1,0,1.7,10.1,8.2,194
2019/05/21 01:16,3,1,4,0.06,0.6,2,0.19,0.0,4,2,2,4657,3753,1022,5,220,64.7,42.1,0,1.7,10.1,8.3,157
2019/05/21 01:18,3,1,4,0.06,0.6,2,0.17,0.0,4,2,1,4676,3739,1025,6,223,64.8,42.1,0,1.7,10.1,8.3,103
2019/05/21 01:20,3,1,4,0.04,0.6,1,0.09,0.0,1,1,1,4726,3709,1034,5,227,64.9,42.2,0,1.7,10.2,8.4,58
2019/05/21 01:22,3,1,4,0.04,0.6,0,0.09,0.0,3,2,3,4687,3736,1027,6,223,64.8,42.1,0,1.7,10.1,8.3,69
